Location: Rio Negrinho
(26.2394°S, 49.4999°W)
Time: 02:41:43
(UTC+00:00)

NOAA 6 - Pass Details

Date: 02 October 2020
Orbit: 773 x 786 km, 98.7° (Epoch: 20 October)

Event Time Altitude Azimuth Distance (km) Brightness Sun altitude
Rises 22:06:17 0° 189° (S) 3,275 7.5 -11.4°
Reaches altitude 10° 22:09:13 10° 206° (SSW) 2,340 7.0 -12.0°
Maximum altitude 22:12:45 19° 249° (WSW) 1,791 7.0 -12.8°
Drops below altitude 10° 22:16:16 10° 293° (WNW) 2,326 7.4 -13.6°
Sets 22:19:12 0° 310° (NW) 3,247 7.8 -14.2°
